Showing default

CENTISPACE-1 S6, 54021

Orbit data source: Space-Track

CENTISPACE-1 S6, 54021 is a payload satellite owned by Centispace (CN) in LEO that was launched on Fri, 07 Oct 2022 UTC via a CHANG ZHENG 11 launch vehicle from the Yellow Sea Launch Area, China (YSLA). Payload-class satellites include a variety of spacecraft equipped with specific instruments for various scientific and technological missions. These include communications satellites like Starlink; space stations such as the ISS; scientific satellites like the Hubble; Earth observation satellites from companies like Planet Labs, Umbra, and HawkEye 360; GPS; miniature CubeSats for education and research; and military/defense satellites.

Loading next visibility...
Identifier
54021, 2022-126B
Orbit
LEO
Country
Flag of CNCN / PRC
Related business
Manufacturer
IMI/CAS
Mission
Operational Commercial Nav/Com
Bus & Motor
WN100, Unknown motor
Mass
97 kg wet, 97 kg dry
Launch date (UTC)
2022-10-07 (4 years ago)
Launch vehicle
CHANG ZHENG 11
Launch site
Yellow Sea Launch Area, China (YSLA)
Object type
Payload
Rocket body
Debris
Shape & HBR
Box + 2 Pan, 1.0 m
Radar Cross Section
0.833 m², Medium (>0.1 m² and < 1m²)

Expand to show TLE details & history
Last TLE update: 2 days ago

TLE from 2 days ago
0 CENTISPACE-1 S6
1 54021U 22126B   26171.42626705  .00000082  00000-0  53383-4 0  9990
2 54021  54.9975 201.8788 0016501  78.6402 281.6444 14.62292443197471
Epoch: 2026-06-20T10:13Z
TLE epoch observation values (Epoch: 2026-06-20T10:13:49.473Z)
Latitude
-0.00006°
Longitude
139.78156°
Altitude
684.51 km
Speed
7.517 km/s
True Right ascension
13h 27m 30s
True Declination
0° 00' 00"
Sunlit
Object was in daylight at epoch
Visualization orbit readout
Latitude
Unknown
Longitude
Unknown
Altitude
Unknown
Speed
Unknown
Apparent Right ascension
Unknown
Apparent Declination
Unknown
Sunlit
N/A
Visualization observer readout
Local Sidereal Time
21:31:38
Azimuth
Unknown
Elevation
Unknown
Doppler factor
Unknown
Orbital elements
Apogee altitude
697.402 km
Perigee altitude
674.09 km
Semi-major axis
7,063.883 km
Eccentricity
0.00165
Inclination
54.9975°
RAAN
201.8788°
Arg. of periapsis
78.6402°
True anomaly
281.45913°
Mean anomaly
281.6444°
Eccentric anomaly
281.55177°
Mean motion
3.65576 °/min
Orbital period
98.47 mins
BSTAR
0.000053383
Loading maneuver chart data...
Computing Atmospheric mass density...
Loading historical data...
Loading historical data...
Loading historical data...
Loading historical data...
Loading historical data...
Loading historical data...
Loading historical data...
Other satellites on launch #126 in the year 2022 (2022-10-07 UTC)

Documentation

Showing up to 5 results
|